This is the latest recevied weather packets stored in our database for station/object K4WCH. If no packets are shown the sender has not sent any weather packets the latest 10 day(s).
| Time | Temp. | Humidity | Pressure | Rain* | Wind** | Luminosity | Snow |
|---|---|---|---|---|---|---|---|
| 1787849936 | 32.22° C | 60% | 1017.1 hPa | 0 mm | - | 1059 W/m² | - |
| 1787849632 | 31.67° C | 62% | 1017.3 hPa | 0 mm | - | 1056 W/m² | - |
| 1787849331 | 31.67° C | 62% | 1017.4 hPa | 0 mm | - | 321 W/m² | - |
| 1787849031 | 32.22° C | 64% | 1017.5 hPa | 0 mm | - | 1024 W/m² | - |
| 1787848731 | 32.22° C | 62% | 1017.7 hPa | 0 mm | - | 247 W/m² | - |
| 1787848426 | 32.22° C | 61% | 1017.6 hPa | 0 mm | - | 964 W/m² | - |
| 1787848126 | 31.67° C | 65% | 1017.7 hPa | 0 mm | - | 1151 W/m² | - |
| 1787847825 | 31.11° C | 65% | 1017.6 hPa | 0 mm | - | 557 W/m² | - |
| 1787847521 | 31.67° C | 65% | 1017.8 hPa | 0 mm | - | 282 W/m² | - |
| 1787847217 | 31.67° C | 66% | 1017.9 hPa | 0 mm | - | 1059 W/m² | - |
| 1787846913 | 31.67° C | 64% | 1017.9 hPa | 0 mm | - | 1082 W/m² | - |
| 1787846613 | 32.22° C | 62% | 1017.9 hPa | 0 mm | - | 1095 W/m² | - |
| 1787846308 | 31.67° C | 64% | 1017.8 hPa | 0 mm | - | 1027 W/m² | - |
| 1787846004 | 31.11° C | 65% | 1017.8 hPa | 0 mm | - | 406 W/m² | - |
| 1787845700 | 31.67° C | 65% | 1017.7 hPa | 0 mm | - | 267 W/m² | - |
| 1787845399 | 31.67° C | 65% | 1017.8 hPa | 0 mm | - | 959 W/m² | - |
| 1787845095 | 30.56° C | 67% | 1017.9 hPa | 0 mm | - | 946 W/m² | - |
| 1787844791 | 31.11° C | 68% | 1017.8 hPa | 0 mm | - | 208 W/m² | - |
| 1787844490 | 30.56° C | 69% | 1018 hPa | 0 mm | - | 245 W/m² | - |
| 1787844193 | 31.11° C | 65% | 1018 hPa | 0 mm | - | 237 W/m² | - |
| 1787843884 | 31.11° C | 67% | 1017.9 hPa | 0 mm | - | 921 W/m² | - |
| 1787843579 | 30.56° C | 70% | 1017.8 hPa | 0 mm | - | 853 W/m² | - |
| 1787843275 | 30.56° C | 70% | 1018 hPa | 0 mm | - | 597 W/m² | - |
| 1787842971 | 30° C | 71% | 1018.1 hPa | 0 mm | - | 881 W/m² | - |
| 1787842670 | 30° C | 73% | 1017.9 hPa | 0 mm | - | 818 W/m² | - |
* Rain latest hour (hover to see other rain measurements)
** Current wind speed in m/s (hover to see current wind gust speed)